Flag for U.S.A. Weather past 2 weeks in West Covina, California, U.S.A.

Now
75 °F

Sunny.


Feels Like: 78 °F
Forecast: 59 / 76 °F
Wind: 12 mph from South

Location: Fullerton Municipal Airport

Current Time: Jun 3, 2015 at 4:44:40 PM

Latest Report: Jun 3, 2015 at 3:53 PM


Visibility: 10 mi

Pressure: 29.86 "Hg

Humidity: 50%

Dew point: 55 °F

Location of West CovinaLocation

Historic Weather in West Covina — Graph

°F

West Covina temperature yesterday

Maximum temperature yesterday: 77 °F (at 12:53 PM)
Minimum temperature yesterday: 59 °F (at 4:53 AM)
Average temperature yesterday: 67 °F

Past Weeks' High & Low Weather Summary

 TemperatureHumidityPressure
High78 °F (May 29, 1:53 PM)87% (Jun 2, 4:53 AM)30.08 "Hg (Jun 2, 4:53 AM)
Low57 °F (May 25, 4:53 AM)39% (May 21, 1:53 PM)29.85 "Hg (May 30, 5:53 PM)
Average66 °F64%29.96 "Hg
* Reported May 19 2:53 PM — Jun 3 2:53 PM, West Covina, Weather by CustomWeather, © 2015

Note: Actual official high and low records may vary slightly from our data, if they occured in-between our weather recording intervals... More about our weather records

Advertising

West Covina weather history for previous 24 hours

 ConditionsComfort  
Time TempWeatherWind HumidityBarometerVisibility
2:53 PM
Wed, Jun 3
77 °FPartly sunny.3 mph47%29.88 "Hg10 mi
1:53 PM73 °FSunny.6 mph53%29.90 "Hg10 mi
12:53 PM69 °FOvercast.N/A61%29.93 "Hg10 mi
11:53 AM67 °FOvercast.5 mph66%29.95 "Hg10 mi
11:00 AM65 °FCloudy.5 mph73%29.96 "Hg10 mi
9:53 AM64 °FOvercast.9 mph75%29.95 "Hg10 mi
8:53 AM64 °FOvercast.7 mph81%29.95 "Hg10 mi
7:53 AM63 °FMore clouds than sun.7 mph84%29.93 "Hg10 mi
6:53 AM64 °FOvercast.5 mph75%29.93 "Hg10 mi
5:53 AM64 °FOvercast.No wind75%29.92 "Hg10 mi
4:53 AM63 °FOvercast.No wind78%29.91 "Hg10 mi
3:53 AM63 °FOvercast.3 mph78%29.92 "Hg10 mi
2:53 AM63 °FOvercast.3 mph78%29.92 "Hg10 mi
1:53 AM63 °FOvercast.5 mph81%29.93 "Hg10 mi
12:53 AM64 °FOvercast.6 mph78%29.93 "Hg10 mi
11:53 PM
Tue, Jun 2
64 °FOvercast.6 mph78%29.94 "Hg10 mi
10:53 PM63 °FPassing clouds.6 mph84%29.95 "Hg10 mi
9:53 PM63 °FPassing clouds.5 mph84%29.94 "Hg10 mi
8:53 PM64 °FSunny.6 mph78%29.93 "Hg10 mi
7:53 PM66 °FSunny.8 mph73%29.92 "Hg10 mi
6:53 PM69 °FSunny.9 mph68%29.91 "Hg10 mi
5:53 PM72 °FSunny.7 mph61%29.90 "Hg10 mi
4:53 PM74 °FSunny.8 mph53%29.91 "Hg10 mi
Weather by CustomWeather, © 2015

See weather overviewHow to use our weather pages